contact:dominique.lefevre@mio.osupytheas.fr, maurice.libes@osupytheas.fr, didier.mallarino@osupytheas.fr
Project:EMSO http://www.emso-fr.org/EMSO-France
Depth: 2436.0 m
Title:EMSO Ligure Ouest : Data MII capteur MICROCAT
DateTime_Computer,Latitude,Longitude,Temperature,Conductivity,Pressure,DateTime_Instrument
DateTime_Computer,Latitude,Longitude,degC,S m-1,dbar,DateTime_Instrument
2019-09-18T00:02:15Z,42.805,6.029,13.2958,4.59973,2469.844,2019-9-18T02:02:38Z
2019-09-18T00:05:18Z,42.805,6.029,13.2960,4.59973,2469.83,2019-9-18T02:05:42Z
2019-09-18T00:08:22Z,42.805,6.029,13.2958,4.59971,2469.83,2019-9-18T02:08:45Z
2019-09-18T00:11:25Z,42.805,6.029,13.2962,4.59973,2469.876,2019-9-18T02:11:48Z
2019-09-18T00:14:28Z,42.805,6.029,13.2957,4.59969,2469.806,2019-9-18T02:14:51Z
2019-09-18T00:17:31Z,42.805,6.029,13.2961,4.59967,2469.83,2019-9-18T02:17:55Z
2019-09-18T00:20:34Z,42.805,6.029,13.2957,4.59968,2469.844,2019-9-18T02:20:58Z
2019-09-18T00:23:38Z,42.805,6.029,13.2958,4.59967,2469.83,2019-9-18T02:24:01Z
2019-09-18T00:26:41Z,42.805,6.029,13.2962,4.59970,2469.821,2019-9-18T02:27:04Z
2019-09-18T00:29:44Z,42.805,6.029,13.2960,4.59969,2469.844,2019-9-18T02:30:07Z
2019-09-18T00:32:47Z,42.805,6.029,13.2959,4.59968,2469.844,2019-9-18T02:33:11Z
2019-09-18T00:35:51Z,42.805,6.029,13.2957,4.59974,2469.83,2019-9-18T02:36:14Z
2019-09-18T00:38:54Z,42.805,6.029,13.2959,4.59964,2469.83,2019-9-18T02:39:17Z
2019-09-18T00:41:57Z,42.805,6.029,13.2959,4.59968,2469.806,2019-9-18T02:42:20Z
2019-09-18T00:45:00Z,42.805,6.029,13.2957,4.59976,2469.853,2019-9-18T02:45:23Z
2019-09-18T00:48:03Z,42.805,6.029,13.2960,4.59966,2469.821,2019-9-18T02:48:27Z
2019-09-18T00:51:07Z,42.805,6.029,13.2956,4.59968,2469.821,2019-9-18T02:51:30Z
2019-09-18T00:54:10Z,42.805,6.029,13.2960,4.59967,2469.783,2019-9-18T02:54:33Z
2019-09-18T00:57:13Z,42.805,6.029,13.2961,4.59964,2469.806,2019-9-18T02:57:36Z
2019-09-18T01:00:16Z,42.805,6.029,13.2962,4.59963,2469.83,2019-9-18T03:00:40Z
2019-09-18T01:03:20Z,42.805,6.029,13.2957,4.59969,2469.844,2019-9-18T03:03:43Z
2019-09-18T01:06:23Z,42.805,6.029,13.2958,4.59959,2469.797,2019-9-18T03:06:46Z
2019-09-18T01:09:26Z,42.805,6.029,13.2961,4.59967,2469.806,2019-9-18T03:09:49Z
2019-09-18T01:12:29Z,42.805,6.029,13.2961,4.59969,2469.806,2019-9-18T03:12:52Z
2019-09-18T01:15:33Z,42.805,6.029,13.2957,4.59967,2469.806,2019-9-18T03:15:56Z
2019-09-18T01:18:36Z,42.805,6.029,13.2962,4.59966,2469.797,2019-9-18T03:18:59Z
2019-09-18T01:21:39Z,42.805,6.029,13.2956,4.59960,2469.797,2019-9-18T03:22:02Z
2019-09-18T01:24:42Z,42.805,6.029,13.2957,4.59971,2469.821,2019-9-18T03:25:06Z
2019-09-18T01:27:46Z,42.805,6.029,13.2961,4.59966,2469.821,2019-9-18T03:28:09Z
2019-09-18T01:30:49Z,42.805,6.029,13.2958,4.59958,2469.806,2019-9-18T03:31:12Z
2019-09-18T01:33:52Z,42.805,6.029,13.2958,4.59975,2469.806,2019-9-18T03:34:15Z
2019-09-18T01:36:55Z,42.805,6.029,13.2959,4.59961,2469.783,2019-9-18T03:37:19Z
2019-09-18T01:39:59Z,42.805,6.029,13.2958,4.59964,2469.806,2019-9-18T03:40:22Z
2019-09-18T01:43:02Z,42.805,6.029,13.2959,4.59968,2469.783,2019-9-18T03:43:25Z
2019-09-18T01:46:05Z,42.805,6.029,13.2955,4.59961,2469.821,2019-9-18T03:46:28Z
2019-09-18T01:49:08Z,42.805,6.029,13.2959,4.59964,2469.806,2019-9-18T03:49:32Z
2019-09-18T01:52:12Z,42.805,6.029,13.2962,4.59959,2469.797,2019-9-18T03:52:35Z
2019-09-18T01:55:15Z,42.805,6.029,13.2960,4.59966,2469.783,2019-9-18T03:55:38Z
2019-09-18T01:58:18Z,42.805,6.029,13.2957,4.59960,2469.821,2019-9-18T03:58:41Z
2019-09-18T02:01:21Z,42.805,6.029,13.2959,4.59968,2469.76,2019-9-18T04:01:45Z
2019-09-18T02:04:25Z,42.805,6.029,13.2961,4.59963,2469.783,2019-9-18T04:04:48Z
2019-09-18T02:07:28Z,42.805,6.029,13.2963,4.59962,2469.76,2019-9-18T04:07:51Z
2019-09-18T02:10:31Z,42.805,6.029,13.2957,4.59962,2469.76,2019-9-18T04:10:54Z
2019-09-18T02:13:34Z,42.805,6.029,13.2960,4.59960,2469.783,2019-9-18T04:13:57Z
2019-09-18T02:16:37Z,42.805,6.029,13.2957,4.59959,2469.76,2019-9-18T04:17:01Z
2019-09-18T02:19:41Z,42.805,6.029,13.2961,4.59962,2469.76,2019-9-18T04:20:04Z
2019-09-18T02:22:44Z,42.805,6.029,13.2964,4.59959,2469.773,2019-9-18T04:23:07Z
2019-09-18T02:25:47Z,42.805,6.029,13.2961,4.59966,2469.76,2019-9-18T04:26:10Z
2019-09-18T02:28:50Z,42.805,6.029,13.2957,4.59963,2469.783,2019-9-18T04:29:13Z
2019-09-18T02:31:53Z,42.805,6.029,13.2961,4.59970,2469.76,2019-9-18T04:32:17Z
2019-09-18T02:34:57Z,42.805,6.029,13.2964,4.59969,2469.75,2019-9-18T04:35:20Z
2019-09-18T02:38:00Z,42.805,6.029,13.2959,4.59961,2469.773,2019-9-18T04:38:23Z
2019-09-18T02:41:03Z,42.805,6.029,13.2957,4.59964,2469.76,2019-9-18T04:41:26Z
2019-09-18T02:44:06Z,42.805,6.029,13.2962,4.59961,2469.76,2019-9-18T04:44:30Z
2019-09-18T02:47:09Z,42.805,6.029,13.2962,4.59962,2469.783,2019-9-18T04:47:33Z
2019-09-18T02:50:13Z,42.805,6.029,13.2958,4.59972,2469.773,2019-9-18T04:50:36Z
2019-09-18T02:53:16Z,42.805,6.029,13.2957,4.59961,2469.773,2019-9-18T04:53:39Z
2019-09-18T02:56:19Z,42.805,6.029,13.2959,4.59961,2469.737,2019-9-18T04:56:43Z
2019-09-18T02:59:23Z,42.805,6.029,13.2961,4.59961,2469.76,2019-9-18T04:59:46Z
2019-09-18T03:02:26Z,42.805,6.029,13.2961,4.59966,2469.737,2019-9-18T05:02:49Z
2019-09-18T03:05:29Z,42.805,6.029,13.2959,4.59970,2469.783,2019-9-18T05:05:52Z
2019-09-18T03:08:32Z,42.805,6.029,13.2961,4.59962,2469.737,2019-9-18T05:08:56Z
2019-09-18T03:11:36Z,42.805,6.029,13.2963,4.59962,2469.737,2019-9-18T05:11:59Z
2019-09-18T03:14:39Z,42.805,6.029,13.2963,4.59965,2469.76,2019-9-18T05:15:02Z
2019-09-18T03:17:42Z,42.805,6.029,13.2968,4.59959,2469.737,2019-9-18T05:18:05Z
2019-09-18T03:20:45Z,42.805,6.029,13.2964,4.59961,2469.737,2019-9-18T05:21:09Z
2019-09-18T03:23:49Z,42.805,6.029,13.2964,4.59961,2469.76,2019-9-18T05:24:12Z
2019-09-18T03:26:52Z,42.805,6.029,13.2967,4.59972,2469.75,2019-9-18T05:27:15Z
2019-09-18T03:29:55Z,42.805,6.029,13.2961,4.59967,2469.75,2019-9-18T05:30:18Z
2019-09-18T03:32:58Z,42.805,6.029,13.2964,4.59960,2469.76,2019-9-18T05:33:22Z
2019-09-18T03:36:02Z,42.805,6.029,13.2960,4.59964,2469.75,2019-9-18T05:36:25Z
2019-09-18T03:39:05Z,42.805,6.029,13.2966,4.59962,2469.797,2019-9-18T05:39:28Z
2019-09-18T03:42:08Z,42.805,6.029,13.2959,4.59997,2469.75,2019-9-18T05:42:31Z
2019-09-18T03:45:11Z,42.805,6.029,13.2963,4.59964,2469.737,2019-9-18T05:45:35Z
2019-09-18T03:48:14Z,42.805,6.029,13.2967,4.59972,2469.727,2019-9-18T05:48:38Z
2019-09-18T03:51:18Z,42.805,6.029,13.2964,4.59962,2469.737,2019-9-18T05:51:41Z
2019-09-18T03:54:21Z,42.805,6.029,13.2964,4.59960,2469.76,2019-9-18T05:54:44Z
2019-09-18T03:57:24Z,42.805,6.029,13.2961,4.59969,2469.737,2019-9-18T05:57:48Z
2019-09-18T04:00:28Z,42.805,6.029,13.2967,4.59961,2469.737,2019-9-18T06:00:51Z
2019-09-18T04:03:31Z,42.805,6.029,13.2970,4.59961,2469.737,2019-9-18T06:03:54Z
2019-09-18T04:06:34Z,42.805,6.029,13.2964,4.59963,2469.713,2019-9-18T06:06:57Z
2019-09-18T04:09:37Z,42.805,6.029,13.2964,4.59961,2469.773,2019-9-18T06:10:00Z
2019-09-18T04:12:41Z,42.805,6.029,13.2968,4.59963,2469.773,2019-9-18T06:13:04Z
2019-09-18T04:15:44Z,42.805,6.029,13.2961,4.59963,2469.783,2019-9-18T06:16:07Z
2019-09-18T04:18:47Z,42.805,6.029,13.2968,4.59961,2469.737,2019-9-18T06:19:10Z
2019-09-18T04:21:50Z,42.805,6.029,13.2961,4.59966,2469.723,2019-9-18T06:22:14Z
2019-09-18T04:24:53Z,42.805,6.029,13.2961,4.59961,2469.737,2019-9-18T06:25:17Z
2019-09-18T04:27:57Z,42.805,6.029,13.2963,4.59961,2469.713,2019-9-18T06:28:20Z
2019-09-18T04:31:00Z,42.805,6.029,13.2961,4.59960,2469.737,2019-9-18T06:31:23Z
2019-09-18T04:34:03Z,42.805,6.029,13.2965,4.59960,2469.737,2019-9-18T06:34:26Z
2019-09-18T04:37:06Z,42.805,6.029,13.2960,4.59971,2469.737,2019-9-18T06:37:30Z
2019-09-18T04:40:10Z,42.805,6.029,13.2964,4.59960,2469.727,2019-9-18T06:40:33Z
2019-09-18T04:43:13Z,42.805,6.029,13.2966,4.59961,2469.737,2019-9-18T06:43:36Z
2019-09-18T04:46:16Z,42.805,6.029,13.2961,4.59961,2469.773,2019-9-18T06:46:39Z
2019-09-18T04:49:19Z,42.805,6.029,13.2960,4.59962,2469.76,2019-9-18T06:49:42Z
2019-09-18T04:52:22Z,42.805,6.029,13.2961,4.59960,2469.75,2019-9-18T06:52:46Z
2019-09-18T04:55:26Z,42.805,6.029,13.2967,4.59960,2469.737,2019-9-18T06:55:49Z
2019-09-18T04:58:29Z,42.805,6.029,13.2964,4.59964,2469.76,2019-9-18T06:58:52Z
2019-09-18T05:01:32Z,42.805,6.029,13.2962,4.59963,2469.773,2019-9-18T07:01:55Z
2019-09-18T05:04:35Z,42.805,6.029,13.2961,4.59961,2469.76,2019-9-18T07:04:58Z
2019-09-18T05:07:38Z,42.805,6.029,13.2961,4.59962,2469.773,2019-9-18T07:08:02Z
2019-09-18T05:10:42Z,42.805,6.029,13.2965,4.59966,2469.797,2019-9-18T07:11:05Z
2019-09-18T05:13:45Z,42.805,6.029,13.2963,4.59966,2469.773,2019-9-18T07:14:08Z
2019-09-18T05:16:48Z,42.805,6.029,13.2964,4.59964,2469.76,2019-9-18T07:17:11Z
2019-09-18T05:19:51Z,42.805,6.029,13.2965,4.59961,2469.783,2019-9-18T07:20:15Z
2019-09-18T05:22:54Z,42.805,6.029,13.2959,4.59966,2469.783,2019-9-18T07:23:18Z
2019-09-18T05:25:58Z,42.805,6.029,13.2965,4.59959,2469.783,2019-9-18T07:26:21Z
2019-09-18T05:29:01Z,42.805,6.029,13.2964,4.59961,2469.806,2019-9-18T07:29:24Z
2019-09-18T05:32:04Z,42.805,6.029,13.2962,4.59961,2469.806,2019-9-18T07:32:28Z
2019-09-18T05:35:07Z,42.805,6.029,13.2959,4.59961,2469.783,2019-9-18T07:35:31Z
2019-09-18T05:38:11Z,42.805,6.029,13.2959,4.59960,2469.783,2019-9-18T07:38:34Z
2019-09-18T05:41:14Z,42.805,6.029,13.2961,4.59961,2469.797,2019-9-18T07:41:37Z
2019-09-18T05:44:17Z,42.805,6.029,13.2967,4.59963,2469.76,2019-9-18T07:44:40Z
2019-09-18T05:47:20Z,42.805,6.029,13.2962,4.59961,2469.821,2019-9-18T07:47:43Z
2019-09-18T05:50:23Z,42.805,6.029,13.2963,4.59961,2469.76,2019-9-18T07:50:47Z
2019-09-18T05:53:27Z,42.805,6.029,13.2964,4.59961,2469.806,2019-9-18T07:53:50Z
2019-09-18T05:56:30Z,42.805,6.029,13.2962,4.59963,2469.821,2019-9-18T07:56:53Z
2019-09-18T05:59:33Z,42.805,6.029,13.2961,4.59964,2469.821,2019-9-18T07:59:56Z
2019-09-18T06:02:36Z,42.805,6.029,13.2962,4.59961,2469.821,2019-9-18T08:03:00Z
2019-09-18T06:05:40Z,42.805,6.029,13.2963,4.59961,2469.844,2019-9-18T08:06:03Z
2019-09-18T06:08:43Z,42.805,6.029,13.2963,4.59962,2469.783,2019-9-18T08:09:06Z
2019-09-18T06:11:46Z,42.805,6.029,13.2961,4.59964,2469.806,2019-9-18T08:12:09Z
2019-09-18T06:14:49Z,42.805,6.029,13.2965,4.59961,2469.83,2019-9-18T08:15:12Z
2019-09-18T06:17:52Z,42.805,6.029,13.2959,4.59963,2469.783,2019-9-18T08:18:16Z
2019-09-18T06:20:56Z,42.805,6.029,13.2961,4.59963,2469.821,2019-9-18T08:21:19Z
2019-09-18T06:23:59Z,42.805,6.029,13.2961,4.59963,2469.821,2019-9-18T08:24:22Z
2019-09-18T06:27:02Z,42.805,6.029,13.2964,4.59965,2469.806,2019-9-18T08:27:25Z
2019-09-18T06:30:05Z,42.805,6.029,13.2964,4.59964,2469.821,2019-9-18T08:30:29Z
2019-09-18T06:33:08Z,42.805,6.029,13.2963,4.59963,2469.844,2019-9-18T08:33:32Z
2019-09-18T06:36:12Z,42.805,6.029,13.2963,4.59961,2469.797,2019-9-18T08:36:35Z
2019-09-18T06:39:15Z,42.805,6.029,13.2964,4.59964,2469.83,2019-9-18T08:39:38Z
2019-09-18T06:42:18Z,42.805,6.029,13.2960,4.59966,2469.821,2019-9-18T08:42:41Z
2019-09-18T06:45:21Z,42.805,6.029,13.2967,4.59965,2469.853,2019-9-18T08:45:45Z
2019-09-18T06:48:25Z,42.805,6.029,13.2963,4.59976,2469.83,2019-9-18T08:48:48Z
2019-09-18T06:51:28Z,42.805,6.029,13.2964,4.59962,2469.83,2019-9-18T08:51:51Z
2019-09-18T06:54:31Z,42.805,6.029,13.2963,4.59964,2469.83,2019-9-18T08:54:54Z
2019-09-18T06:57:34Z,42.805,6.029,13.2964,4.59962,2469.83,2019-9-18T08:57:57Z
2019-09-18T07:00:37Z,42.805,6.029,13.2958,4.59973,2469.83,2019-9-18T09:01:01Z
2019-09-18T07:03:41Z,42.805,6.029,13.2964,4.59969,2469.83,2019-9-18T09:04:04Z
2019-09-18T07:06:44Z,42.805,6.029,13.2963,4.59968,2469.83,2019-9-18T09:07:07Z
2019-09-18T07:09:47Z,42.805,6.029,13.2964,4.59965,2469.806,2019-9-18T09:10:10Z
2019-09-18T07:12:50Z,42.805,6.029,13.2961,4.59970,2469.83,2019-9-18T09:13:13Z
2019-09-18T07:15:53Z,42.805,6.029,13.2964,4.59968,2469.89,2019-9-18T09:16:17Z
2019-09-18T07:18:57Z,42.805,6.029,13.2964,4.59966,2469.844,2019-9-18T09:19:20Z
2019-09-18T07:22:00Z,42.805,6.029,13.2967,4.59993,2469.867,2019-9-18T09:22:23Z
2019-09-18T07:25:03Z,42.805,6.029,13.2968,4.59973,2469.844,2019-9-18T09:25:26Z
2019-09-18T07:28:06Z,42.805,6.029,13.2957,4.59972,2469.853,2019-9-18T09:28:29Z
2019-09-18T07:31:09Z,42.805,6.029,13.2961,4.59963,2469.867,2019-9-18T09:31:33Z
2019-09-18T07:34:13Z,42.805,6.029,13.2964,4.59975,2469.853,2019-9-18T09:34:36Z
2019-09-18T07:37:16Z,42.805,6.029,13.2963,4.59966,2469.867,2019-9-18T09:37:39Z
2019-09-18T07:40:19Z,42.805,6.029,13.2964,4.59964,2469.853,2019-9-18T09:40:42Z
2019-09-18T07:43:22Z,42.805,6.029,13.2965,4.59966,2469.9,2019-9-18T09:43:46Z
2019-09-18T07:46:26Z,42.805,6.029,13.2961,4.59964,2469.876,2019-9-18T09:46:49Z
2019-09-18T07:49:29Z,42.805,6.029,13.2960,4.59973,2469.89,2019-9-18T09:49:52Z
2019-09-18T07:52:32Z,42.805,6.029,13.2966,4.59968,2469.876,2019-9-18T09:52:55Z
2019-09-18T07:55:36Z,42.805,6.029,13.2963,4.59973,2469.876,2019-9-18T09:55:59Z
2019-09-18T07:58:39Z,42.805,6.029,13.2962,4.59970,2469.914,2019-9-18T09:59:02Z
2019-09-18T08:01:42Z,42.805,6.029,13.2970,4.59975,2469.914,2019-9-18T10:02:05Z
2019-09-18T08:04:45Z,42.805,6.029,13.2962,4.59988,2469.9,2019-9-18T10:05:08Z
2019-09-18T08:07:48Z,42.805,6.029,13.2960,4.59972,2469.9,2019-9-18T10:08:12Z
2019-09-18T08:10:52Z,42.805,6.029,13.2961,4.59968,2469.9,2019-9-18T10:11:15Z
2019-09-18T08:13:55Z,42.805,6.029,13.2964,4.59970,2469.9,2019-9-18T10:14:18Z
2019-09-18T08:16:58Z,42.805,6.029,13.2963,4.59968,2469.9,2019-9-18T10:17:21Z
2019-09-18T08:20:01Z,42.805,6.029,13.2964,4.59973,2469.9,2019-9-18T10:20:25Z
2019-09-18T08:23:05Z,42.805,6.029,13.2962,4.59967,2469.876,2019-9-18T10:23:28Z
2019-09-18T08:26:08Z,42.805,6.029,13.2960,4.59976,2469.876,2019-9-18T10:26:31Z
2019-09-18T08:29:11Z,42.805,6.029,13.2958,4.59974,2469.937,2019-9-18T10:29:34Z
2019-09-18T08:32:14Z,42.805,6.029,13.2960,4.59971,2469.914,2019-9-18T10:32:38Z
2019-09-18T08:35:18Z,42.805,6.029,13.2959,4.59976,2469.914,2019-9-18T10:35:41Z
2019-09-18T08:38:21Z,42.805,6.029,13.2967,4.59969,2469.914,2019-9-18T10:38:44Z
2019-09-18T08:41:24Z,42.805,6.029,13.2958,4.59974,2469.876,2019-9-18T10:41:47Z
2019-09-18T08:44:27Z,42.805,6.029,13.2959,4.59970,2469.9,2019-9-18T10:44:51Z
2019-09-18T08:47:30Z,42.805,6.029,13.2959,4.59979,2469.923,2019-9-18T10:47:54Z
2019-09-18T08:50:34Z,42.805,6.029,13.2961,4.59973,2469.9,2019-9-18T10:50:57Z
2019-09-18T08:53:37Z,42.805,6.029,13.2959,4.59966,2469.9,2019-9-18T10:54:00Z
2019-09-18T08:56:40Z,42.805,6.029,13.2962,4.59976,2469.9,2019-9-18T10:57:03Z
2019-09-18T08:59:43Z,42.805,6.029,13.2966,4.59967,2469.923,2019-9-18T11:00:07Z
2019-09-18T09:02:47Z,42.805,6.029,13.2961,4.59972,2469.923,2019-9-18T11:03:10Z
2019-09-18T09:05:50Z,42.805,6.029,13.2958,4.59974,2469.923,2019-9-18T11:06:13Z
2019-09-18T09:08:53Z,42.805,6.029,13.2961,4.59972,2469.9,2019-9-18T11:09:16Z
2019-09-18T09:11:56Z,42.805,6.029,13.2962,4.59976,2469.947,2019-9-18T11:12:20Z
2019-09-18T09:14:59Z,42.805,6.029,13.2961,4.59972,2469.923,2019-9-18T11:15:23Z
2019-09-18T09:18:03Z,42.805,6.029,13.2974,4.59973,2469.937,2019-9-18T11:18:26Z
2019-09-18T09:21:06Z,42.805,6.029,13.2990,4.59990,2469.933,2019-9-18T11:21:29Z
2019-09-18T09:24:09Z,42.805,6.029,13.3018,4.60001,2469.937,2019-9-18T11:24:32Z
2019-09-18T09:27:12Z,42.805,6.029,13.2996,4.59996,2469.914,2019-9-18T11:27:36Z
2019-09-18T09:30:15Z,42.805,6.029,13.3009,4.59989,2469.9,2019-9-18T11:30:39Z
2019-09-18T09:33:19Z,42.805,6.029,13.3010,4.60035,2469.923,2019-9-18T11:33:42Z
2019-09-18T09:36:22Z,42.805,6.029,13.3006,4.60047,2469.923,2019-9-18T11:36:45Z
2019-09-18T09:39:25Z,42.805,6.029,13.3012,4.60003,2469.9,2019-9-18T11:39:48Z
2019-09-18T09:42:28Z,42.805,6.029,13.2991,4.60014,2469.97,2019-9-18T11:42:51Z
2019-09-18T09:45:32Z,42.805,6.029,13.2996,4.60036,2469.923,2019-9-18T11:45:55Z
2019-09-18T09:48:35Z,42.805,6.029,13.2978,4.60019,2469.937,2019-9-18T11:48:58Z
2019-09-18T09:51:38Z,42.805,6.029,13.3004,4.60031,2469.923,2019-9-18T11:52:01Z
2019-09-18T09:54:41Z,42.805,6.029,13.2994,4.60059,2469.937,2019-9-18T11:55:05Z
2019-09-18T09:57:45Z,42.805,6.029,13.2982,4.60031,2469.9,2019-9-18T11:58:08Z
2019-09-18T10:00:48Z,42.805,6.029,13.2981,4.60019,2469.937,2019-9-18T12:01:11Z
2019-09-18T10:03:51Z,42.805,6.029,13.2986,4.60074,2469.9,2019-9-18T12:04:14Z
2019-09-18T10:06:54Z,42.805,6.029,13.2989,4.60049,2469.947,2019-9-18T12:07:18Z
2019-09-18T10:09:58Z,42.805,6.029,13.3006,4.60058,2469.9,2019-9-18T12:10:21Z
2019-09-18T10:13:01Z,42.805,6.029,13.3008,4.60015,2469.9,2019-9-18T12:13:24Z
2019-09-18T10:16:04Z,42.805,6.029,13.2992,4.60013,2469.937,2019-9-18T12:16:27Z
2019-09-18T10:19:07Z,42.805,6.029,13.2982,4.60032,2469.914,2019-9-18T12:19:30Z
2019-09-18T10:22:11Z,42.805,6.029,13.2980,4.60064,2469.89,2019-9-18T12:22:34Z
2019-09-18T10:25:14Z,42.805,6.029,13.3006,4.60032,2469.853,2019-9-18T12:25:37Z
2019-09-18T10:28:17Z,42.805,6.029,13.3022,4.60055,2469.876,2019-9-18T12:28:40Z
2019-09-18T10:31:20Z,42.805,6.029,13.3007,4.60036,2469.89,2019-9-18T12:31:44Z
2019-09-18T10:34:24Z,42.805,6.029,13.3001,4.60024,2469.914,2019-9-18T12:34:47Z
2019-09-18T10:37:27Z,42.805,6.029,13.2996,4.60006,2469.9,2019-9-18T12:37:50Z
2019-09-18T10:40:30Z,42.805,6.029,13.3004,4.60040,2469.914,2019-9-18T12:40:53Z
2019-09-18T10:43:33Z,42.805,6.029,13.2988,4.60052,2469.89,2019-9-18T12:43:57Z
2019-09-18T10:46:36Z,42.805,6.029,13.2999,4.60047,2469.914,2019-9-18T12:47:00Z
2019-09-18T10:49:40Z,42.805,6.029,13.2979,4.60021,2469.9,2019-9-18T12:50:03Z
2019-09-18T10:52:43Z,42.805,6.029,13.2991,4.60055,2469.89,2019-9-18T12:53:06Z
2019-09-18T10:55:46Z,42.805,6.029,13.2983,4.60042,2469.89,2019-9-18T12:56:09Z
2019-09-18T10:58:49Z,42.805,6.029,13.2984,4.60062,2469.89,2019-9-18T12:59:13Z
2019-09-18T11:01:52Z,42.805,6.029,13.2987,4.60031,2469.89,2019-9-18T13:02:16Z
2019-09-18T11:04:56Z,42.805,6.029,13.2990,4.60037,2469.876,2019-9-18T13:05:19Z
2019-09-18T11:07:59Z,42.805,6.029,13.3005,4.60022,2469.853,2019-9-18T13:08:22Z
2019-09-18T11:11:02Z,42.805,6.029,13.3013,4.60013,2469.9,2019-9-18T13:11:25Z
2019-09-18T11:14:05Z,42.805,6.029,13.2993,4.60011,2469.867,2019-9-18T13:14:29Z
2019-09-18T11:17:09Z,42.805,6.029,13.2989,4.60020,2469.844,2019-9-18T13:17:32Z
2019-09-18T11:20:12Z,42.805,6.029,13.3006,4.60034,2469.853,2019-9-18T13:20:35Z
2019-09-18T11:23:15Z,42.805,6.029,13.3001,4.60021,2469.89,2019-9-18T13:23:38Z
2019-09-18T11:26:18Z,42.805,6.029,13.3019,4.60012,2469.867,2019-9-18T13:26:41Z
2019-09-18T11:29:21Z,42.805,6.029,13.2996,4.59979,2469.867,2019-9-18T13:29:45Z
2019-09-18T11:32:25Z,42.805,6.029,13.2992,4.60021,2469.89,2019-9-18T13:32:48Z
2019-09-18T11:35:28Z,42.805,6.029,13.2993,4.60046,2469.914,2019-9-18T13:35:51Z
2019-09-18T11:38:31Z,42.805,6.029,13.3000,4.60001,2469.876,2019-9-18T13:38:54Z
2019-09-18T11:41:34Z,42.805,6.029,13.3014,4.59997,2469.867,2019-9-18T13:41:57Z
2019-09-18T11:44:37Z,42.805,6.029,13.2971,4.59990,2469.83,2019-9-18T13:45:01Z
2019-09-18T11:47:41Z,42.805,6.029,13.2966,4.60015,2469.89,2019-9-18T13:48:04Z
2019-09-18T11:50:44Z,42.805,6.029,13.2992,4.60016,2469.853,2019-9-18T13:51:07Z
2019-09-18T11:53:47Z,42.805,6.029,13.2996,4.59977,2469.876,2019-9-18T13:54:10Z
2019-09-18T11:56:51Z,42.805,6.029,13.2990,4.59990,2469.853,2019-9-18T13:57:14Z
2019-09-18T11:59:54Z,42.805,6.029,13.2988,4.60011,2469.83,2019-9-18T14:00:17Z
2019-09-18T12:02:57Z,42.805,6.029,13.2997,4.60026,2469.83,2019-9-18T14:03:20Z
2019-09-18T12:06:00Z,42.805,6.029,13.3024,4.59976,2469.844,2019-9-18T14:06:23Z
2019-09-18T12:09:03Z,42.805,6.029,13.3013,4.59985,2469.876,2019-9-18T14:09:27Z
2019-09-18T12:12:07Z,42.805,6.029,13.2958,4.59983,2469.821,2019-9-18T14:12:30Z
2019-09-18T12:15:10Z,42.805,6.029,13.3019,4.59994,2469.867,2019-9-18T14:15:33Z
2019-09-18T12:18:13Z,42.805,6.029,13.2976,4.60003,2469.806,2019-9-18T14:18:36Z
2019-09-18T12:21:16Z,42.805,6.029,13.3018,4.59971,2469.844,2019-9-18T14:21:39Z
2019-09-18T12:24:19Z,42.805,6.029,13.2998,4.59992,2469.83,2019-9-18T14:24:43Z
2019-09-18T12:27:23Z,42.805,6.029,13.2998,4.59991,2469.867,2019-9-18T14:27:46Z
2019-09-18T12:30:26Z,42.805,6.029,13.2998,4.59982,2469.83,2019-9-18T14:30:49Z
2019-09-18T12:33:29Z,42.805,6.029,13.2990,4.59978,2469.83,2019-9-18T14:33:52Z
2019-09-18T12:36:32Z,42.805,6.029,13.3002,4.60006,2469.844,2019-9-18T14:36:55Z
2019-09-18T12:39:35Z,42.805,6.029,13.2968,4.60026,2469.83,2019-9-18T14:39:59Z
2019-09-18T12:42:38Z,42.805,6.029,13.2986,4.60017,2469.816,2019-9-18T14:43:02Z
2019-09-18T12:45:42Z,42.805,6.029,13.2966,4.60000,2469.867,2019-9-18T14:46:05Z
2019-09-18T12:48:45Z,42.805,6.029,13.3014,4.59992,2469.867,2019-9-18T14:49:08Z
2019-09-18T12:51:48Z,42.805,6.029,13.2989,4.59994,2469.806,2019-9-18T14:52:11Z
2019-09-18T12:54:51Z,42.805,6.029,13.2978,4.59977,2469.844,2019-9-18T14:55:15Z
2019-09-18T12:57:54Z,42.805,6.029,13.3005,4.59976,2469.821,2019-9-18T14:58:18Z
2019-09-18T13:00:58Z,42.805,6.029,13.2967,4.59991,2469.806,2019-9-18T15:01:21Z
2019-09-18T13:04:01Z,42.805,6.029,13.2971,4.59994,2469.797,2019-9-18T15:04:24Z
2019-09-18T13:07:04Z,42.805,6.029,13.2983,4.59979,2469.83,2019-9-18T15:07:27Z
2019-09-18T13:10:07Z,42.805,6.029,13.2998,4.59981,2469.83,2019-9-18T15:10:31Z
2019-09-18T13:13:11Z,42.805,6.029,13.2977,4.60003,2469.806,2019-9-18T15:13:34Z
2019-09-18T13:16:14Z,42.805,6.029,13.2958,4.59982,2469.806,2019-9-18T15:16:37Z
2019-09-18T13:19:17Z,42.805,6.029,13.2958,4.59966,2469.83,2019-9-18T15:19:40Z
2019-09-18T13:22:20Z,42.805,6.029,13.2957,4.59964,2469.844,2019-9-18T15:22:43Z
2019-09-18T13:25:23Z,42.805,6.029,13.2958,4.59963,2469.821,2019-9-18T15:25:47Z
2019-09-18T13:28:27Z,42.805,6.029,13.2956,4.59972,2469.806,2019-9-18T15:28:50Z
2019-09-18T13:31:30Z,42.805,6.029,13.2960,4.59961,2469.821,2019-9-18T15:31:53Z
2019-09-18T13:34:33Z,42.805,6.029,13.2955,4.59956,2469.806,2019-9-18T15:34:56Z
2019-09-18T13:37:36Z,42.805,6.029,13.2958,4.59954,2469.806,2019-9-18T15:38:00Z
2019-09-18T13:40:39Z,42.805,6.029,13.2957,4.59956,2469.783,2019-9-18T15:41:03Z
2019-09-18T13:43:43Z,42.805,6.029,13.2959,4.59956,2469.773,2019-9-18T15:44:06Z
2019-09-18T13:46:46Z,42.805,6.029,13.2958,4.59956,2469.806,2019-9-18T15:47:09Z
2019-09-18T13:49:49Z,42.805,6.029,13.2957,4.59957,2469.821,2019-9-18T15:50:12Z
2019-09-18T13:52:52Z,42.805,6.029,13.2958,4.59957,2469.83,2019-9-18T15:53:15Z
2019-09-18T13:55:55Z,42.805,6.029,13.2959,4.59959,2469.797,2019-9-18T15:56:19Z
2019-09-18T13:58:58Z,42.805,6.029,13.2958,4.59958,2469.76,2019-9-18T15:59:22Z
2019-09-18T14:02:02Z,42.805,6.029,13.2957,4.59960,2469.844,2019-9-18T16:02:25Z
2019-09-18T14:05:05Z,42.805,6.029,13.2958,4.59958,2469.746,2019-9-18T16:05:28Z
2019-09-18T14:08:08Z,42.805,6.029,13.2959,4.59958,2469.797,2019-9-18T16:08:31Z
2019-09-18T14:11:11Z,42.805,6.029,13.2957,4.59960,2469.806,2019-9-18T16:11:35Z
2019-09-18T14:14:15Z,42.805,6.029,13.2957,4.59958,2469.797,2019-9-18T16:14:38Z
2019-09-18T14:17:18Z,42.805,6.029,13.2954,4.59958,2469.783,2019-9-18T16:17:41Z
2019-09-18T14:20:21Z,42.805,6.029,13.2957,4.59955,2469.76,2019-9-18T16:20:44Z
2019-09-18T14:23:24Z,42.805,6.029,13.2955,4.59955,2469.797,2019-9-18T16:23:47Z
2019-09-18T14:26:27Z,42.805,6.029,13.2954,4.59955,2469.783,2019-9-18T16:26:51Z
2019-09-18T14:29:31Z,42.805,6.029,13.2961,4.59955,2469.783,2019-9-18T16:29:54Z
2019-09-18T14:32:34Z,42.805,6.029,13.2957,4.59956,2469.797,2019-9-18T16:32:58Z
2019-09-18T14:35:37Z,42.805,6.029,13.2957,4.59958,2469.806,2019-9-18T16:36:01Z
2019-09-18T14:38:41Z,42.805,6.029,13.2961,4.59955,2469.783,2019-9-18T16:39:04Z
2019-09-18T14:41:44Z,42.805,6.029,13.2959,4.59958,2469.797,2019-9-18T16:42:07Z
2019-09-18T14:44:47Z,42.805,6.029,13.2963,4.59956,2469.783,2019-9-18T16:45:10Z
2019-09-18T14:47:50Z,42.805,6.029,13.2955,4.59956,2469.773,2019-9-18T16:48:14Z
2019-09-18T14:50:54Z,42.805,6.029,13.2961,4.59955,2469.783,2019-9-18T16:51:17Z
2019-09-18T14:53:57Z,42.805,6.029,13.2962,4.59956,2469.773,2019-9-18T16:54:20Z
2019-09-18T14:57:00Z,42.805,6.029,13.2960,4.59958,2469.783,2019-9-18T16:57:23Z
2019-09-18T15:00:03Z,42.805,6.029,13.2962,4.59957,2469.746,2019-9-18T17:00:27Z
2019-09-18T15:03:06Z,42.805,6.029,13.2959,4.59958,2469.76,2019-9-18T17:03:30Z
2019-09-18T15:06:10Z,42.805,6.029,13.2958,4.59960,2469.76,2019-9-18T17:06:33Z
2019-09-18T15:09:13Z,42.805,6.029,13.2961,4.59958,2469.737,2019-9-18T17:09:36Z
2019-09-18T15:12:16Z,42.805,6.029,13.2960,4.59963,2469.737,2019-9-18T17:12:39Z
2019-09-18T15:15:19Z,42.805,6.029,13.2959,4.59958,2469.797,2019-9-18T17:15:43Z